SVA705 OPKC-OEJN

Flight info

Callsign SVA705
Flight time N/A
Altitude 36000
Route MELOM A454 TAPDO G652 TOKRA/N0509F280 Y511 ITRUX/N0491F380 Y511 ASMIS DCT ALPUT M309 VEMEM
Aircraft B77W/H-SDE1E2E3FGHIJ2J3J4J5M1RWXY/LB1D1

Departure

Time 2026-05-01 11:53
Airport Jinnah International Airport (OPKC)

Arrival

Time N/A
Airport King Abdulaziz International Airport (OEJN)
Time Latitude Longitude Altitude Speed Heading
2026-05-01 11:23 24.90306 67.16826 106 ft 0 kts 125°
2026-05-01 11:41 24.90319 67.16805 106 ft 4 kts 120°
2026-05-01 11:42 24.90332 67.16778 106 ft 4 kts 114°
2026-05-01 11:42 24.90342 67.16751 106 ft 4 kts 108°
2026-05-01 11:42 24.90349 67.16723 105 ft 4 kts 101°
2026-05-01 11:42 24.90353 67.16693 103 ft 4 kts 93°
2026-05-01 11:43 24.90353 67.16664 103 ft 4 kts 82°
2026-05-01 11:43 24.90349 67.16642 104 ft 0 kts 75°
2026-05-01 11:48 24.90350 67.16645 104 ft 1 kts 75°
2026-05-01 11:48 24.90356 67.16670 106 ft 6 kts 75°
2026-05-01 11:48 24.90391 67.16702 107 ft 8 kts 13°
2026-05-01 11:48 24.90454 67.16695 109 ft 10 kts
2026-05-01 11:49 24.90490 67.16755 107 ft 10 kts 73°
2026-05-01 11:49 24.90513 67.16844 108 ft 14 kts 74°
2026-05-01 11:49 24.90545 67.16968 108 ft 19 kts 75°
2026-05-01 11:49 24.90583 67.17119 107 ft 21 kts 75°
2026-05-01 11:50 24.90621 67.17268 107 ft 18 kts 72°
2026-05-01 11:50 24.90663 67.17393 107 ft 17 kts 59°
2026-05-01 11:50 24.90740 67.17459 108 ft 9 kts 31°
2026-05-01 11:50 24.90798 67.17490 110 ft 9 kts 10°
2026-05-01 11:51 24.90860 67.17475 109 ft 9 kts 319°
2026-05-01 11:51 24.90859 67.17417 110 ft 0 kts 256°
2026-05-01 11:52 24.90845 67.17357 110 ft 25 kts 254°
2026-05-01 11:52 24.90727 67.16903 109 ft 97 kts 255°
2026-05-01 11:52 24.90487 67.15955 109 ft 156 kts 255°
2026-05-01 11:52 24.90130 67.14740 513 ft 168 kts 249°
2026-05-01 11:53 24.89795 67.13420 833 ft 188 kts 253°
2026-05-01 11:53 24.89443 67.12056 1544 ft 181 kts 248°
2026-05-01 11:53 24.88622 67.10951 1972 ft 196 kts 225°
2026-05-01 11:53 24.87496 67.09939 2159 ft 220 kts 222°
2026-05-01 11:54 24.86265 67.08854 2547 ft 233 kts 223°
2026-05-01 11:54 24.85013 67.07645 2997 ft 246 kts 226°
2026-05-01 11:54 24.83741 67.06302 3463 ft 259 kts 229°
2026-05-01 11:54 24.82462 67.04869 4064 ft 265 kts 229°
2026-05-01 11:55 24.81182 67.03394 4788 ft 269 kts 230°
2026-05-01 11:55 24.79885 67.01885 5493 ft 272 kts 231°
2026-05-01 11:55 24.78662 67.00317 6154 ft 269 kts 243°
2026-05-01 11:55 24.78118 66.98381 6743 ft 266 kts 269°
2026-05-01 11:56 24.78220 66.96360 7470 ft 265 kts 278°
2026-05-01 11:56 24.78442 66.94342 8176 ft 267 kts 278°
2026-05-01 11:56 24.78672 66.92300 8903 ft 270 kts 278°
2026-05-01 11:56 24.78903 66.90241 9619 ft 273 kts 278°
2026-05-01 11:57 24.79133 66.88142 10120 ft 284 kts 278°
2026-05-01 11:57 24.79378 66.85888 10282 ft 309 kts 278°
2026-05-01 11:57 24.79639 66.83447 10445 ft 333 kts 278°
2026-05-01 11:57 24.80081 66.80898 10554 ft 348 kts 291°
2026-05-01 11:58 24.81305 66.78565 11056 ft 359 kts 309°
2026-05-01 11:58 24.83069 66.76597 11632 ft 365 kts 315°
2026-05-01 11:58 24.86818 66.72728 13292 ft 372 kts 315°
2026-05-01 11:59 24.88711 66.70765 14061 ft 376 kts 315°
2026-05-01 11:59 24.90617 66.68774 14786 ft 380 kts 315°
2026-05-01 11:59 24.92541 66.66750 15484 ft 384 kts 314°
2026-05-01 12:00 24.96436 66.62635 16886 ft 394 kts 314°
2026-05-01 12:00 24.98422 66.60530 17580 ft 398 kts 314°
2026-05-01 12:00 25.02456 66.56256 18879 ft 405 kts 314°
2026-05-01 12:01 25.04470 66.54082 19491 ft 404 kts 310°
2026-05-01 12:01 25.06058 66.51518 19926 ft 409 kts 294°
2026-05-01 12:01 25.06928 66.48534 20497 ft 410 kts 283°
2026-05-01 12:01 25.07581 66.45462 21097 ft 413 kts 283°
2026-05-01 12:02 25.08242 66.42363 21738 ft 416 kts 283°
2026-05-01 12:02 25.08910 66.39245 22389 ft 419 kts 284°
2026-05-01 12:02 25.09589 66.36109 23017 ft 422 kts 284°
2026-05-01 12:02 25.10279 66.32952 23535 ft 425 kts 284°
2026-05-01 12:03 25.10979 66.29765 24003 ft 429 kts 284°
2026-05-01 12:03 25.11686 66.26558 24454 ft 432 kts 284°
2026-05-01 12:03 25.12402 66.23318 24919 ft 435 kts 283°
2026-05-01 12:03 25.13119 66.20070 25398 ft 437 kts 283°
2026-05-01 12:04 25.13840 66.16800 25832 ft 440 kts 283°
2026-05-01 12:04 25.14567 66.13504 26235 ft 444 kts 283°
2026-05-01 12:04 25.15298 66.10183 26656 ft 447 kts 283°
2026-05-01 12:04 25.16032 66.06842 27073 ft 449 kts 283°
2026-05-01 12:05 25.16771 66.03478 27474 ft 452 kts 283°
2026-05-01 12:05 25.18258 65.96696 28184 ft 458 kts 283°
2026-05-01 12:05 25.19008 65.93267 28513 ft 460 kts 283°
2026-05-01 12:06 25.19761 65.89822 28792 ft 463 kts 283°
2026-05-01 12:06 25.20517 65.86356 29078 ft 466 kts 283°
2026-05-01 12:06 25.21267 65.82919 29356 ft 468 kts 283°
2026-05-01 12:06 25.22042 65.79361 29621 ft 470 kts 283°
2026-05-01 12:07 25.22806 65.75847 29907 ft 471 kts 283°
2026-05-01 12:07 25.23570 65.72334 30251 ft 470 kts 283°
2026-05-01 12:07 25.24330 65.68831 30614 ft 468 kts 283°
2026-05-01 12:07 25.25077 65.65384 30945 ft 468 kts 283°
2026-05-01 12:08 25.25843 65.61845 31275 ft 467 kts 283°
2026-05-01 12:08 25.26587 65.58403 31590 ft 467 kts 283°
2026-05-01 12:08 25.27340 65.54916 31899 ft 467 kts 283°
2026-05-01 12:08 25.28092 65.51429 32243 ft 466 kts 283°
2026-05-01 12:09 25.28841 65.47950 32595 ft 465 kts 283°
2026-05-01 12:09 25.29588 65.44476 32927 ft 465 kts 283°
2026-05-01 12:09 25.30336 65.41000 33254 ft 464 kts 283°
2026-05-01 12:09 25.31079 65.37540 33685 ft 461 kts 282°
2026-05-01 12:10 25.31814 65.34106 34062 ft 458 kts 282°
2026-05-01 12:10 25.33042 65.28356 34443 ft 460 kts 282°
2026-05-01 12:10 25.33777 65.24904 34641 ft 462 kts 282°
2026-05-01 12:11 25.35243 65.18008 35174 ft 460 kts 282°
2026-05-01 12:11 25.35965 65.14616 35456 ft 459 kts 282°
2026-05-01 12:11 25.36697 65.11170 35556 ft 462 kts 282°
2026-05-01 12:12 25.38167 65.04232 35642 ft 463 kts 282°
2026-05-01 12:12 25.39623 64.97343 35649 ft 458 kts 282°
2026-05-01 12:13 25.41051 64.90483 35646 ft 456 kts 279°
2026-05-01 12:13 25.41266 64.83504 35659 ft 455 kts 265°
2026-05-01 12:14 25.39990 64.76659 35656 ft 457 kts 254°
2026-05-01 12:14 25.38073 64.69934 35657 ft 459 kts 253°
2026-05-01 12:15 25.36141 64.63199 35656 ft 460 kts 253°
2026-05-01 12:15 25.34234 64.56436 35661 ft 461 kts 253°
2026-05-01 12:16 25.32341 64.49659 35660 ft 462 kts 254°
2026-05-01 12:16 25.30447 64.42877 35659 ft 461 kts 254°
2026-05-01 12:17 25.28553 64.36107 35662 ft 461 kts 254°
2026-05-01 12:17 25.26655 64.29340 35656 ft 461 kts 254°
2026-05-01 12:18 25.24756 64.22585 35665 ft 460 kts 253°
2026-05-01 12:18 25.22867 64.15877 35666 ft 460 kts 253°
2026-05-01 12:19 25.20965 64.09138 35662 ft 460 kts 253°
2026-05-01 12:19 25.19058 64.02391 35668 ft 460 kts 253°
2026-05-01 12:20 25.17146 63.95643 35663 ft 461 kts 253°
2026-05-01 12:20 25.15230 63.88890 35663 ft 461 kts 253°
2026-05-01 12:21 25.13311 63.82141 35665 ft 461 kts 253°
2026-05-01 12:21 25.11386 63.75386 35672 ft 461 kts 253°
2026-05-01 12:22 25.09458 63.68633 35674 ft 462 kts 253°
2026-05-01 12:22 25.07527 63.61879 35674 ft 462 kts 253°
2026-05-01 12:23 25.05590 63.55119 35674 ft 462 kts 253°
2026-05-01 12:23 25.03651 63.48364 35678 ft 462 kts 253°
2026-05-01 12:24 25.01708 63.41608 35678 ft 462 kts 253°
2026-05-01 12:24 24.99765 63.34864 35681 ft 462 kts 253°
2026-05-01 12:25 24.96844 63.24753 35687 ft 461 kts 253°
2026-05-01 12:26 24.94895 63.18020 35687 ft 461 kts 253°
2026-05-01 12:26 24.91968 63.07935 35689 ft 461 kts 253°
2026-05-01 12:27 24.89050 62.97906 35687 ft 460 kts 253°
2026-05-01 12:28 24.86115 62.87848 35691 ft 460 kts 253°
2026-05-01 12:29 24.83177 62.77806 35696 ft 459 kts 253°
2026-05-01 12:29 24.80232 62.67771 35694 ft 459 kts 253°
2026-05-01 12:30 24.77282 62.57745 35693 ft 459 kts 253°
2026-05-01 12:31 24.75311 62.51059 35711 ft 460 kts 253°
2026-05-01 12:31 24.73335 62.44369 35708 ft 460 kts 253°
2026-05-01 12:32 24.71353 62.37672 35710 ft 461 kts 253°
2026-05-01 12:32 24.68730 62.28832 35708 ft 461 kts 253°
2026-05-01 12:33 24.66739 62.22133 35714 ft 461 kts 253°
2026-05-01 12:33 24.64745 62.15435 35717 ft 461 kts 253°
2026-05-01 12:34 24.62751 62.08750 35717 ft 460 kts 253°
2026-05-01 12:34 24.60755 62.02069 35723 ft 460 kts 253°
2026-05-01 12:35 24.58756 61.95392 35720 ft 460 kts 253°
2026-05-01 12:35 24.56756 61.88725 35728 ft 459 kts 253°
2026-05-01 12:36 24.54769 61.82110 35724 ft 459 kts 253°
2026-05-01 12:36 24.52767 61.75459 35726 ft 458 kts 253°
2026-05-01 12:37 24.50764 61.68813 35727 ft 458 kts 253°
2026-05-01 12:37 24.48760 61.62177 35728 ft 458 kts 253°
2026-05-01 12:38 24.46753 61.55543 35732 ft 458 kts 253°
2026-05-01 12:38 24.44729 61.48864 35731 ft 458 kts 253°
2026-05-01 12:39 24.42715 61.42231 35743 ft 458 kts 253°
2026-05-01 12:39 24.40713 61.35645 35742 ft 458 kts 253°
2026-05-01 12:40 24.38655 61.29028 35747 ft 458 kts 252°
2026-05-01 12:40 24.36512 61.22442 35744 ft 458 kts 252°
2026-05-01 12:41 24.34366 61.15864 35747 ft 458 kts 252°
2026-05-01 12:41 24.32230 61.09289 35747 ft 458 kts 252°
2026-05-01 12:42 24.30099 61.02720 35746 ft 457 kts 252°
2026-05-01 12:42 24.27964 60.96153 35754 ft 457 kts 252°
2026-05-01 12:43 24.25873 60.89730 35752 ft 457 kts 252°
2026-05-01 12:43 24.23736 60.83178 35757 ft 457 kts 252°
2026-05-01 12:44 24.21597 60.76629 35757 ft 456 kts 252°
2026-05-01 12:45 24.17299 60.63548 35757 ft 456 kts 251°
2026-05-01 12:45 24.15143 60.57009 35760 ft 456 kts 251°
2026-05-01 12:46 24.12987 60.50477 35767 ft 456 kts 251°
2026-05-01 12:46 24.10828 60.43943 35769 ft 456 kts 251°
2026-05-01 12:47 24.08666 60.37413 35766 ft 456 kts 251°
2026-05-01 12:47 24.06504 60.30893 35766 ft 456 kts 251°
2026-05-01 12:48 24.04355 60.24420 35767 ft 455 kts 251°
2026-05-01 12:48 24.02190 60.17911 35767 ft 455 kts 251°
2026-05-01 12:49 24.00023 60.11406 35767 ft 455 kts 251°
2026-05-01 12:49 23.97854 60.04907 35763 ft 455 kts 251°
2026-05-01 12:50 23.95683 59.98411 35765 ft 455 kts 251°
2026-05-01 12:50 23.93507 59.91911 35773 ft 455 kts 251°
2026-05-01 12:51 23.91327 59.85407 35770 ft 456 kts 251°
2026-05-01 12:52 23.88047 59.75645 35772 ft 456 kts 251°
2026-05-01 12:52 23.84761 59.65886 35771 ft 456 kts 251°
2026-05-01 12:53 23.81471 59.56137 35778 ft 456 kts 251°
2026-05-01 12:54 23.79272 59.49644 35774 ft 456 kts 250°
2026-05-01 12:54 23.75805 59.39979 35779 ft 456 kts 250°
2026-05-01 12:55 23.72306 59.30342 35781 ft 455 kts 250°
2026-05-01 12:56 23.69983 59.23916 35779 ft 455 kts 250°
2026-05-01 12:56 23.67660 59.17491 35780 ft 455 kts 250°
2026-05-01 12:57 23.65338 59.11075 35773 ft 455 kts 250°
2026-05-01 12:57 23.61849 59.01455 35774 ft 455 kts 250°
2026-05-01 12:58 23.59519 58.95045 35772 ft 454 kts 250°
2026-05-01 12:59 23.56417 58.86524 35774 ft 454 kts 250°
2026-05-01 12:59 23.52538 58.75893 35779 ft 454 kts 250°
2026-05-01 13:00 23.49411 58.67345 35786 ft 454 kts 249°
2026-05-01 13:01 23.45901 58.57763 35783 ft 454 kts 249°
2026-05-01 13:02 23.42392 58.48197 35784 ft 453 kts 249°
2026-05-01 13:07 23.16494 57.77981 35871 ft 458 kts 250°
2026-05-01 13:08 23.14256 57.71508 35879 ft 458 kts 250°
2026-05-01 13:08 23.12010 57.65032 35895 ft 458 kts 250°
2026-05-01 13:09 23.09766 57.58565 35889 ft 457 kts 250°
2026-05-01 13:09 23.07529 57.52124 35896 ft 456 kts 250°
2026-05-01 13:10 23.05289 57.45686 35886 ft 455 kts 250°
2026-05-01 13:10 23.03056 57.39273 35889 ft 454 kts 250°
2026-05-01 13:11 23.00823 57.32874 35885 ft 453 kts 250°
2026-05-01 13:11 22.98189 57.26654 35881 ft 455 kts 244°
2026-05-01 13:12 22.95251 57.20576 35864 ft 456 kts 244°
2026-05-01 13:12 22.92320 57.14468 35857 ft 457 kts 244°
2026-05-01 13:13 22.89399 57.08350 35860 ft 457 kts 244°
2026-05-01 13:13 22.86479 57.02232 35830 ft 457 kts 244°
2026-05-01 13:14 22.83560 56.96126 35851 ft 456 kts 244°
2026-05-01 13:14 22.80640 56.90025 35834 ft 456 kts 244°
2026-05-01 13:15 22.77719 56.83924 35829 ft 456 kts 244°
2026-05-01 13:15 22.74803 56.77837 35806 ft 455 kts 244°
2026-05-01 13:16 22.71890 56.71761 35813 ft 454 kts 244°
2026-05-01 13:16 22.68978 56.65696 35815 ft 454 kts 244°
2026-05-01 13:17 22.63154 56.53588 35797 ft 453 kts 244°
2026-05-01 13:18 22.58773 56.44497 35794 ft 455 kts 244°
2026-05-01 13:18 22.55862 56.38466 35791 ft 456 kts 244°
2026-05-01 13:19 22.52898 56.32344 35785 ft 457 kts 244°
2026-05-01 13:20 22.48484 56.23255 35779 ft 457 kts 244°
2026-05-01 13:20 22.45527 56.17170 35785 ft 457 kts 244°
2026-05-01 13:21 22.41090 56.08049 35781 ft 457 kts 244°
2026-05-01 13:21 22.38129 56.01973 35781 ft 456 kts 244°
2026-05-01 13:22 22.35159 55.95913 35778 ft 456 kts 243°
2026-05-01 13:22 22.32181 55.89863 35772 ft 456 kts 243°
2026-05-01 13:23 22.29208 55.83819 35773 ft 456 kts 243°
2026-05-01 13:23 22.26231 55.77775 35767 ft 456 kts 243°
2026-05-01 13:24 22.23256 55.71734 35766 ft 456 kts 243°
2026-05-01 13:25 22.18794 55.62672 35762 ft 456 kts 243°
2026-05-01 13:25 22.16637 55.56311 35767 ft 453 kts 259°
2026-05-01 13:26 22.16138 55.49552 35765 ft 454 kts 273°
2026-05-01 13:26 22.16737 55.42758 35766 ft 455 kts 274°
2026-05-01 13:27 22.17361 55.35956 35759 ft 456 kts 274°
2026-05-01 13:27 22.18212 55.25724 35766 ft 457 kts 273°
2026-05-01 13:28 22.19033 55.15484 35763 ft 457 kts 274°
2026-05-01 13:29 22.20122 55.01876 35760 ft 457 kts 273°
2026-05-01 13:31 22.21747 54.81414 35772 ft 456 kts 273°
2026-05-01 13:32 22.23079 54.64383 35775 ft 454 kts 273°
2026-05-01 13:33 22.24388 54.47421 35768 ft 453 kts 273°
2026-05-01 13:34 22.25416 54.33917 35774 ft 453 kts 273°
2026-05-01 13:35 22.26185 54.23740 35779 ft 454 kts 273°
2026-05-01 13:36 22.26948 54.13545 35772 ft 454 kts 272°
2026-05-01 13:36 22.27705 54.03344 35772 ft 455 kts 272°
2026-05-01 13:37 22.28122 53.97683 35770 ft 455 kts 272°
2026-05-01 13:37 22.28706 53.89735 35771 ft 454 kts 272°
2026-05-01 13:38 22.29445 53.79561 35776 ft 452 kts 272°
2026-05-01 13:39 22.29933 53.72802 35780 ft 451 kts 272°
2026-05-01 13:39 22.30418 53.66052 35780 ft 451 kts 272°
2026-05-01 13:40 22.30900 53.59303 35781 ft 451 kts 272°
2026-05-01 13:40 22.31377 53.52559 35781 ft 451 kts 272°
2026-05-01 13:41 22.31851 53.45805 35779 ft 451 kts 272°
2026-05-01 13:41 22.32323 53.39043 35781 ft 452 kts 272°
2026-05-01 13:42 22.32792 53.32278 35778 ft 452 kts 272°
2026-05-01 13:42 22.33259 53.25507 35781 ft 452 kts 272°
2026-05-01 13:43 22.33724 53.18731 35771 ft 452 kts 272°
2026-05-01 13:43 22.34186 53.11960 35782 ft 452 kts 272°
2026-05-01 13:44 22.34644 53.05201 35776 ft 451 kts 272°
2026-05-01 13:44 22.35098 52.98460 35779 ft 450 kts 272°
2026-05-01 13:45 22.35548 52.91728 35781 ft 449 kts 272°
2026-05-01 13:45 22.35994 52.85008 35784 ft 448 kts 272°
2026-05-01 13:46 22.36435 52.78336 35785 ft 448 kts 272°
2026-05-01 13:46 22.36876 52.71616 35782 ft 448 kts 272°
2026-05-01 13:47 22.37315 52.64896 35790 ft 449 kts 272°
2026-05-01 13:47 22.37680 52.59263 35786 ft 449 kts 272°
2026-05-01 13:48 22.38114 52.52535 35791 ft 449 kts 272°
2026-05-01 13:48 22.38542 52.45852 35789 ft 449 kts 272°
2026-05-01 13:49 22.38970 52.39121 35801 ft 449 kts 272°
2026-05-01 13:49 22.39396 52.32396 35795 ft 449 kts 272°
2026-05-01 13:50 22.39818 52.25675 35795 ft 448 kts 271°
2026-05-01 13:50 22.40237 52.18962 35790 ft 447 kts 271°
2026-05-01 13:51 22.40653 52.12260 35790 ft 447 kts 271°
2026-05-01 13:51 22.41067 52.05570 35793 ft 446 kts 271°
2026-05-01 13:52 22.41479 51.98878 35788 ft 446 kts 271°
2026-05-01 13:52 22.41885 51.92192 35791 ft 446 kts 271°
2026-05-01 13:53 22.42284 51.85501 35790 ft 446 kts 271°
2026-05-01 13:53 22.42877 51.75454 35800 ft 447 kts 271°
2026-05-01 13:54 22.43271 51.68751 35798 ft 447 kts 271°
2026-05-01 13:54 22.43662 51.62043 35823 ft 447 kts 271°
2026-05-01 13:55 22.44048 51.55378 35799 ft 447 kts 271°
2026-05-01 13:55 22.44435 51.48630 35796 ft 447 kts 271°
2026-05-01 13:56 22.44815 51.41979 35802 ft 446 kts 271°
2026-05-01 13:56 22.45193 51.35292 35803 ft 445 kts 271°
2026-05-01 13:57 22.45568 51.28614 35803 ft 445 kts 271°
2026-05-01 13:57 22.45941 51.21937 35800 ft 445 kts 271°
2026-05-01 13:58 22.46311 51.15262 35806 ft 445 kts 271°
2026-05-01 13:58 22.46678 51.08586 35806 ft 445 kts 271°
2026-05-01 13:59 22.47049 51.01908 35805 ft 445 kts 271°
2026-05-01 13:59 22.47420 50.95230 35806 ft 445 kts 271°
2026-05-01 14:00 22.47788 50.88545 35806 ft 445 kts 271°
2026-05-01 14:00 22.48152 50.81862 35816 ft 445 kts 271°
2026-05-01 14:01 22.48514 50.75178 35810 ft 445 kts 271°
2026-05-01 14:01 22.48872 50.68498 35812 ft 445 kts 271°
2026-05-01 14:02 22.49228 50.61821 35811 ft 445 kts 271°
2026-05-01 14:02 22.49581 50.55147 35810 ft 444 kts 271°
2026-05-01 14:03 22.49931 50.48476 35812 ft 444 kts 271°
2026-05-01 14:03 22.50277 50.41809 35813 ft 444 kts 270°
2026-05-01 14:04 22.50619 50.35181 35811 ft 444 kts 270°
2026-05-01 14:04 22.50961 50.28508 35814 ft 444 kts 270°
2026-05-01 14:05 22.51300 50.21833 35814 ft 445 kts 270°
2026-05-01 14:05 22.51636 50.15155 35810 ft 445 kts 270°
2026-05-01 14:06 22.51970 50.08481 35811 ft 445 kts 270°
2026-05-01 14:06 22.52301 50.01797 35810 ft 445 kts 270°
2026-05-01 14:07 22.52629 49.95117 35812 ft 445 kts 270°
2026-05-01 14:08 22.53116 49.85097 35812 ft 445 kts 270°
2026-05-01 14:08 22.53438 49.78415 35816 ft 445 kts 270°
2026-05-01 14:09 22.53901 49.71735 35815 ft 446 kts 273°
2026-05-01 14:09 22.54586 49.65067 35814 ft 446 kts 273°
2026-05-01 14:10 22.55270 49.58400 35813 ft 446 kts 273°
2026-05-01 14:10 22.55919 49.51730 35823 ft 446 kts 273°
2026-05-01 14:11 22.56549 49.45057 35825 ft 446 kts 272°
2026-05-01 14:11 22.57484 49.35060 35810 ft 445 kts 272°
2026-05-01 14:12 22.58104 49.28405 35813 ft 444 kts 272°
2026-05-01 14:12 22.58720 49.21762 35813 ft 444 kts 272°
2026-05-01 14:13 22.59024 49.18474 35927 ft 446 kts 272°
2026-05-01 14:13 22.59231 49.16219 36112 ft 445 kts 272°
2026-05-01 14:13 22.59638 49.11814 36569 ft 443 kts 272°
2026-05-01 14:13 22.59942 49.08509 36898 ft 441 kts 272°
2026-05-01 14:14 22.60245 49.05205 37204 ft 440 kts 272°
2026-05-01 14:14 22.60546 49.01914 37467 ft 440 kts 272°
2026-05-01 14:14 22.60846 48.98619 37694 ft 440 kts 272°
2026-05-01 14:14 22.61146 48.95317 37753 ft 442 kts 272°
2026-05-01 14:15 22.61746 48.88696 37815 ft 441 kts 272°
2026-05-01 14:15 22.62342 48.82107 37833 ft 438 kts 272°
2026-05-01 14:16 22.62931 48.75555 37822 ft 436 kts 272°
2026-05-01 14:16 22.63514 48.69033 37828 ft 435 kts 272°
2026-05-01 14:17 22.64093 48.62526 37828 ft 434 kts 272°
2026-05-01 14:17 22.64670 48.56013 37828 ft 435 kts 272°
2026-05-01 14:18 22.65244 48.49493 37829 ft 436 kts 272°
2026-05-01 14:18 22.65721 48.44061 37831 ft 437 kts 272°
2026-05-01 14:19 22.66391 48.36402 37831 ft 438 kts 272°
2026-05-01 14:19 22.66962 48.29834 37828 ft 438 kts 272°
2026-05-01 14:20 22.67815 48.19970 37832 ft 439 kts 272°
2026-05-01 14:21 22.68377 48.13441 37831 ft 438 kts 272°
2026-05-01 14:21 22.68937 48.06889 37830 ft 437 kts 272°
2026-05-01 14:22 22.69766 47.97084 37835 ft 435 kts 272°
2026-05-01 14:22 22.70308 47.90568 37835 ft 434 kts 272°
2026-05-01 14:23 22.70847 47.84053 37836 ft 434 kts 272°
2026-05-01 14:23 22.71384 47.77544 37829 ft 434 kts 272°
2026-05-01 14:24 22.71919 47.71032 37843 ft 434 kts 272°
2026-05-01 14:24 22.72452 47.64513 37853 ft 435 kts 271°
2026-05-01 14:25 22.72983 47.57991 37846 ft 435 kts 271°
2026-05-01 14:25 22.73511 47.51464 37851 ft 435 kts 271°
2026-05-01 14:26 22.74297 47.41685 37851 ft 434 kts 271°
2026-05-01 14:27 22.74701 47.36634 37850 ft 434 kts 271°
2026-05-01 14:27 22.75219 47.30125 37854 ft 434 kts 271°
2026-05-01 14:28 22.75991 47.20361 37855 ft 434 kts 271°
2026-05-01 14:28 22.76340 47.15941 37864 ft 434 kts 271°
2026-05-01 14:29 22.76861 47.09429 37864 ft 434 kts 271°
2026-05-01 14:30 22.77900 46.96399 37875 ft 434 kts 271°
2026-05-01 14:31 22.78670 46.86624 37865 ft 434 kts 271°
2026-05-01 14:31 22.79180 46.80112 37870 ft 434 kts 271°
2026-05-01 14:32 22.79684 46.73648 37870 ft 433 kts 271°
2026-05-01 14:32 22.80188 46.67141 37874 ft 433 kts 271°
2026-05-01 14:33 22.80689 46.60642 37886 ft 433 kts 271°
2026-05-01 14:33 22.81188 46.54136 37884 ft 433 kts 271°
2026-05-01 14:34 22.81684 46.47632 37904 ft 433 kts 271°
2026-05-01 14:34 22.82177 46.41127 37885 ft 433 kts 271°
2026-05-01 14:35 22.82664 46.34625 37892 ft 433 kts 271°
2026-05-01 14:35 22.83144 46.28125 37886 ft 432 kts 271°
2026-05-01 14:36 22.83620 46.21631 37879 ft 432 kts 271°
2026-05-01 14:36 22.84014 46.16240 37877 ft 431 kts 271°
2026-05-01 14:37 22.84485 46.09758 37886 ft 432 kts 271°
2026-05-01 14:37 22.84955 46.03261 37871 ft 432 kts 271°
2026-05-01 14:38 22.85423 45.96761 37876 ft 433 kts 271°
2026-05-01 14:38 22.85888 45.90253 37879 ft 433 kts 270°
2026-05-01 14:39 22.86351 45.83745 37860 ft 433 kts 270°
2026-05-01 14:39 22.86811 45.77239 37857 ft 433 kts 270°
2026-05-01 14:40 22.87268 45.70739 37867 ft 432 kts 270°
2026-05-01 14:40 22.87722 45.64243 37867 ft 432 kts 270°
2026-05-01 14:41 22.88172 45.57755 37861 ft 432 kts 270°
2026-05-01 14:41 22.88620 45.51263 37858 ft 431 kts 270°
2026-05-01 14:42 22.89066 45.44776 37860 ft 431 kts 270°
2026-05-01 14:42 22.89508 45.38282 37856 ft 431 kts 270°
2026-05-01 14:43 22.89949 45.31793 37867 ft 431 kts 270°
2026-05-01 14:43 22.90386 45.25305 37860 ft 431 kts 270°
2026-05-01 14:44 22.90820 45.18834 37846 ft 430 kts 271°
2026-05-01 14:44 22.91464 45.09153 37857 ft 428 kts 270°
2026-05-01 14:45 22.92102 44.99490 37837 ft 428 kts 270°
2026-05-01 14:46 22.92525 44.93037 37844 ft 430 kts 271°
2026-05-01 14:46 22.93157 44.83353 37866 ft 432 kts 270°
2026-05-01 14:47 22.93576 44.76836 37854 ft 434 kts 270°
2026-05-01 14:48 22.94139 44.67037 37864 ft 433 kts 268°
2026-05-01 14:48 22.93583 44.57288 37858 ft 432 kts 263°
2026-05-01 14:49 22.92705 44.44303 37852 ft 431 kts 264°
2026-05-01 14:50 22.91841 44.31344 37857 ft 430 kts 264°
2026-05-01 14:51 22.91190 44.21658 37868 ft 429 kts 264°
2026-05-01 14:52 22.90533 44.11997 37867 ft 428 kts 264°
2026-05-01 14:53 22.89872 44.02343 37894 ft 428 kts 264°
2026-05-01 14:53 22.89427 43.95911 37865 ft 428 kts 264°
2026-05-01 14:54 22.88981 43.89481 37878 ft 428 kts 264°
2026-05-01 14:54 22.88531 43.83044 37896 ft 428 kts 264°
2026-05-01 14:55 22.88078 43.76604 37891 ft 429 kts 264°
2026-05-01 14:55 22.87626 43.70198 37898 ft 429 kts 264°
2026-05-01 14:56 22.87167 43.63741 37901 ft 430 kts 264°
2026-05-01 14:56 22.86705 43.57282 37904 ft 430 kts 264°
2026-05-01 14:57 22.86241 43.50832 37908 ft 429 kts 264°
2026-05-01 14:57 22.85542 43.41182 37925 ft 428 kts 264°
2026-05-01 14:58 22.85073 43.34749 37913 ft 427 kts 264°
2026-05-01 14:58 22.84602 43.28331 37921 ft 427 kts 264°
2026-05-01 14:59 22.84129 43.21913 37925 ft 427 kts 264°
2026-05-01 14:59 22.83653 43.15496 37925 ft 427 kts 264°
2026-05-01 15:00 22.82934 43.05861 37931 ft 427 kts 264°
2026-05-01 15:01 22.82452 42.99441 37936 ft 427 kts 264°
2026-05-01 15:01 22.81970 42.93063 37926 ft 428 kts 264°
2026-05-01 15:02 22.81481 42.86633 37926 ft 428 kts 264°
2026-05-01 15:02 22.80991 42.80212 37891 ft 428 kts 264°
2026-05-01 15:03 22.80497 42.73786 37923 ft 428 kts 264°
2026-05-01 15:03 22.80001 42.67351 37940 ft 429 kts 264°
2026-05-01 15:04 22.79501 42.60913 37954 ft 430 kts 264°
2026-05-01 15:04 22.78997 42.54451 37937 ft 431 kts 264°
2026-05-01 15:05 22.78490 42.47979 37949 ft 431 kts 264°
2026-05-01 15:05 22.77980 42.41511 37951 ft 431 kts 264°
2026-05-01 15:06 22.77468 42.35048 37961 ft 430 kts 264°
2026-05-01 15:06 22.76954 42.28594 37952 ft 430 kts 264°
2026-05-01 15:07 22.76438 42.22151 37935 ft 429 kts 264°
2026-05-01 15:07 22.75921 42.15723 37964 ft 428 kts 264°
2026-05-01 15:08 22.75402 42.09306 37972 ft 428 kts 264°
2026-05-01 15:08 22.74881 42.02889 37980 ft 428 kts 264°
2026-05-01 15:09 22.74357 41.96471 37988 ft 428 kts 264°
2026-05-01 15:09 22.73834 41.90096 37979 ft 428 kts 264°
2026-05-01 15:10 22.73304 41.83678 37984 ft 428 kts 264°
2026-05-01 15:10 22.72505 41.74049 37993 ft 428 kts 264°
2026-05-01 15:11 22.71701 41.64427 37986 ft 428 kts 264°
2026-05-01 15:12 22.71162 41.58017 37989 ft 428 kts 264°
2026-05-01 15:12 22.70347 41.48389 37998 ft 428 kts 264°
2026-05-01 15:14 22.68980 41.32374 38000 ft 429 kts 264°
2026-05-01 15:14 22.68148 41.22716 38004 ft 430 kts 264°
2026-05-01 15:15 22.66368 41.10010 38011 ft 430 kts 255°
2026-05-01 15:16 22.62100 40.97878 38019 ft 432 kts 250°
2026-05-01 15:18 22.56527 40.82780 38023 ft 432 kts 250°
2026-05-01 15:19 22.52070 40.70739 38024 ft 433 kts 250°
2026-05-01 15:19 22.48714 40.61687 38026 ft 432 kts 250°
2026-05-01 15:20 22.45355 40.52643 38047 ft 432 kts 250°
2026-05-01 15:21 22.43109 40.46608 38071 ft 433 kts 250°
2026-05-01 15:21 22.40862 40.40574 38060 ft 433 kts 250°
2026-05-01 15:22 22.37491 40.31542 38038 ft 432 kts 250°
2026-05-01 15:22 22.35246 40.25535 38055 ft 431 kts 250°
2026-05-01 15:23 22.33000 40.19532 38049 ft 431 kts 250°
2026-05-01 15:23 22.30751 40.13530 38050 ft 432 kts 250°
2026-05-01 15:24 22.28497 40.07520 38029 ft 432 kts 250°
2026-05-01 15:24 22.26619 40.02520 38011 ft 432 kts 250°
2026-05-01 15:25 22.24359 39.96498 38017 ft 433 kts 250°
2026-05-01 15:25 22.22094 39.90460 37976 ft 434 kts 250°
2026-05-01 15:26 22.19827 39.84414 37973 ft 435 kts 250°
2026-05-01 15:26 22.17551 39.78349 37960 ft 437 kts 250°
2026-05-01 15:27 22.15269 39.72266 37956 ft 438 kts 250°
2026-05-01 15:28 22.11863 39.63194 37901 ft 421 kts 250°
2026-05-01 15:28 22.10778 39.60323 37904 ft 406 kts 250°
2026-05-01 15:28 22.09726 39.57553 37899 ft 391 kts 250°
2026-05-01 15:29 22.06662 39.49524 37740 ft 384 kts 251°
2026-05-01 15:29 22.04640 39.44236 36822 ft 379 kts 250°
2026-05-01 15:30 22.02684 39.39151 35201 ft 362 kts 250°
2026-05-01 15:31 21.94271 39.32527 27676 ft 450 kts 192°
2026-05-01 15:31 21.88084 39.33000 25606 ft 452 kts 169°
2026-05-01 15:32 21.82741 39.36431 24024 ft 458 kts 138°
2026-05-01 15:32 21.79409 39.42323 22351 ft 462 kts 126°
2026-05-01 15:33 21.71752 39.46422 19780 ft 410 kts 192°
2026-05-01 15:34 21.63997 39.44776 18893 ft 347 kts 170°